Location: Ljubljana
(46.0552°N, 14.5144°E)
Time: 20:40:37
(UTC+02:00)

ISS - Visible Passes

Search period start: 23 May 2017 00:00
Search period end: 02 June 2017 00:00
Orbit: 402 x 409 km, 51.6° (Epoch: 24 May)

Date Brightness Start Highest point End Pass type
(mag) Time Alt. Az. Time Alt. Az. Time Alt. Az.
23 May -1.9 01:15:15 15° WNW 01:17:30 31° N 01:20:30 10° ENE visible
23 May -2.1 02:51:27 10° WNW 02:54:32 35° NNE 02:57:35 10° E visible
23 May -3.9 04:27:56 10° WNW 04:31:12 66° SSW 04:34:26 10° SE visible
23 May -3.9 22:45:26 10° SW 22:48:40 60° SSE 22:51:56 10° ENE visible
24 May -2.3 00:22:12 10° W 00:25:18 37° NNW 00:28:24 10° NE visible
24 May -1.9 01:59:21 10° WNW 02:02:20 31° N 02:05:18 10° ENE visible
24 May -3.7 03:35:52 10° WNW 03:39:10 77° NNE 03:42:26 10° ESE visible
24 May -3.2 21:53:41 10° SSW 21:56:42 34° SE 21:59:44 10° ENE visible
24 May -2.8 23:29:56 10° W 23:33:08 48° NNW 23:36:22 10° ENE visible
25 May -1.8 01:07:10 10° WNW 01:10:07 29° N 01:13:03 10° ENE visible
25 May -3.0 02:43:50 10° WNW 02:47:04 51° NNE 02:50:16 10° E visible
25 May -3.1 04:20:30 10° WNW 04:23:27 31° SW 04:26:22 10° SSE visible
25 May -3.6 22:37:44 10° WSW 22:41:01 71° NNW 22:44:18 10° ENE visible
26 May -1.8 00:14:53 10° WNW 00:17:52 30° N 00:20:50 10° ENE visible
26 May -2.4 01:51:46 10° WNW 01:54:53 38° NNE 01:58:00 10° E visible
26 May -3.8 03:28:15 10° WNW 03:31:29 53° SSW 03:34:41 10° SE visible
26 May -3.9 21:45:39 10° SW 21:48:56 73° SSE 21:52:13 10° ENE visible
26 May -2.1 23:22:34 10° W 23:25:38 34° NNW 23:28:41 10° ENE visible
27 May -2.0 00:59:38 10° WNW 01:02:40 32° N 01:05:40 10° ENE visible
27 May -4.0 02:36:08 10° WNW 02:39:26 89° WSW 02:42:43 10° ESE visible
27 May -2.1 04:13:34 10° W 04:15:30 15° SW 04:17:26 10° S visible
27 May -2.5 22:30:14 10° W 22:33:25 43° NNW 22:36:35 10° ENE visible
28 May -1.8 00:07:27 10° WNW 00:10:24 29° N 00:13:21 10° ENE visible
28 May -3.3 01:44:03 10° WNW 01:47:17 59° NNE 01:47:17 59° NNE visible
28 May -3.2 21:37:58 10° WSW 21:41:13 61° NNW 21:44:30 10° ENE visible
28 May -1.8 23:15:10 10° WNW 23:18:08 30° N 23:21:05 10° ENE visible
29 May -2.6 00:51:57 10° WNW 00:55:07 42° NNE 00:55:49 36° NE visible
29 May -1.9 22:22:49 10° WNW 22:25:51 32° N 22:28:52 10° ENE visible
29 May -2.1 23:59:49 10° WNW 00:02:52 34° N 00:04:53 17° ENE visible
30 May -1.8 01:36:18 10° WNW 01:37:30 21° WNW 01:37:30 21° WNW visible
30 May -2.3 21:30:27 10° W 21:33:34 39° NNW 21:36:43 10° ENE visible
30 May -1.9 23:07:36 10° WNW 23:10:35 30° N 23:13:33 10° ENE visible
31 May -3.0 00:44:09 10° WNW 00:46:45 50° NW 00:46:45 50° NW visible
31 May -1.8 22:15:19 10° WNW 22:18:17 29° N 22:21:13 10° ENE visible
31 May -2.9 23:52:02 10° WNW 23:55:14 47° NNE 23:56:06 36° ENE visible
01 Jun -1.0 01:28:38 10° WNW 01:28:44 11° WNW 01:28:44 11° WNW visible
01 Jun -1.9 21:22:57 10° WNW 21:25:57 31° N 21:28:57 10° ENE visible
01 Jun -2.4 22:59:52 10° WNW 23:02:58 36° NNE 23:05:30 14° ENE visible
